Home   Weather   Venice   Past weeks

Flag for Italy Past Weather in Venice, Italy — Yesterday and Last 2 Weeks

Now
57 °F

Fog.


Feels Like: 56 °F
Forecast: 58 / 74 °F
Wind: 6 mph from North

Location: Venice / Tessera

Current Time: Sep 29, 2016 at 8:45:41 AM

Latest Report: Sep 29, 2016 at 7:50 AM


Visibility: 3 mi

Pressure: 30.33 "Hg

Humidity: 94%

Dew Point: 55 °F

Location of VeniceLocation

Past Weather in Venice — Graph

°F

Venice Temperature Yesterday

Maximum temperature yesterday: 73 °F (at 12:50 PM)
Minimum temperature yesterday: 59 °F (at 4:50 AM)
Average temperature yesterday: 67 °F

High & Low Weather Summary for the Past Weeks

 TemperatureHumidityPressure
High82 °F (Sep 14, 2:50 PM)100% (Sep 17, 2:50 AM)30.39 "Hg (Sep 17, 2:50 AM)
Low54 °F (Sep 23, 6:50 AM)38% (Sep 22, 1:20 PM)29.74 "Hg (Sep 17, 3:20 AM)
Average67 °F74%30.05 "Hg
* Reported Sep 14 7:20 AM — Sep 29 7:20 AM, Venice, Weather by CustomWeather, © 2016

Note: Actual official high and low records may vary slightly from our data, if they occured in-between our weather recording intervals... More about our weather records

Advertising

Venice Weather History for the Previous 24 Hours

Scroll right to see more
 ConditionsComfort  
Time TempWeatherWind HumidityBarometerVisibility
7:20 AM
Thu, Sep 29
55 °FFog.6 mph94%30.33 "Hg3 mi
6:50 AM57 °FClear.2 mph94%30.33 "Hg4 mi
6:20 AM59 °FClear.1 mph88%30.33 "Hg6 mi
5:50 AM61 °FClear.1 mph88%30.33 "Hg6 mi
5:20 AM61 °FClear.1 mph83%30.33 "Hg10 mi
4:50 AM61 °FClear.2 mph83%30.33 "Hg10 mi
4:20 AM59 °FClear.1 mph94%30.36 "Hg10 mi
3:50 AM61 °FClear.1 mph88%30.36 "Hg10 mi
3:20 AM61 °FClear.1 mph88%30.36 "Hg10 mi
2:50 AM61 °FClear.1 mph88%30.36 "Hg10 mi
2:20 AM61 °FClear.3 mph88%30.36 "Hg10 mi
1:50 AM61 °FClear.6 mph88%30.36 "Hg10 mi
1:20 AM61 °FClear.6 mph88%30.36 "Hg10 mi
12:50 AM64 °FClear.7 mph83%30.36 "Hg10 mi
12:20 AM66 °FClear.6 mph83%30.36 "Hg10 mi
11:50 PM
Wed, Sep 28
66 °FClear.7 mph78%30.36 "Hg10 mi
11:20 PM66 °FClear.8 mph73%30.36 "Hg10 mi
10:50 PM68 °FClear.8 mph69%30.36 "Hg10 mi
10:20 PM68 °FClear.9 mph73%30.36 "Hg10 mi
9:50 PM66 °FClear.7 mph68%30.36 "Hg10 mi
9:20 PM68 °FClear.7 mph64%30.36 "Hg10 mi
8:50 PM68 °FClear.7 mph64%30.36 "Hg10 mi
8:20 PM68 °FClear.6 mph69%30.33 "Hg10 mi
7:50 PM68 °FClear.6 mph64%30.33 "Hg10 mi
7:20 PM68 °FClear.6 mph64%30.33 "Hg10 mi
6:50 PM70 °FSunny.6 mph60%30.33 "Hg10 mi
6:20 PM72 °FSunny.7 mph57%30.33 "Hg10 mi
5:50 PM72 °FPassing clouds.7 mph57%30.33 "HgN/A
5:20 PM73 °FSunny.8 mph53%30.33 "Hg10 mi
4:50 PM72 °FSunny.8 mph53%30.33 "Hg10 mi
4:20 PM73 °FSunny.9 mph53%30.33 "Hg10 mi
3:50 PM72 °FSunny.8 mph57%30.33 "Hg10 mi
3:20 PM73 °FSunny.8 mph47%30.36 "Hg10 mi
2:50 PM72 °FSunny.8 mph50%30.36 "Hg10 mi
2:20 PM72 °FPassing clouds.8 mph44%30.36 "HgN/A
1:50 PM73 °FPassing clouds.8 mph44%30.39 "HgN/A
1:20 PM73 °FPassing clouds.7 mph47%30.39 "HgN/A
12:50 PM73 °FPassing clouds.7 mph47%30.39 "HgN/A
12:20 PM72 °FPassing clouds.7 mph53%30.39 "HgN/A
11:50 AM72 °FSunny.7 mph53%30.39 "Hg10 mi
11:20 AM70 °FPassing clouds.7 mph60%30.39 "HgN/A
10:50 AM68 °FSunny.8 mph64%30.39 "Hg10 mi
10:20 AM66 °FPassing clouds.7 mph68%30.39 "HgN/A
9:50 AM64 °FSunny.7 mph73%30.39 "Hg10 mi
9:20 AM64 °FSunny.6 mph68%30.39 "Hg10 mi
8:50 AM61 °FPassing clouds.6 mph77%30.36 "HgN/A
8:20 AM59 °FSunny.7 mph82%30.36 "Hg10 mi
Weather by CustomWeather, © 2016

See weather overviewHow to use our weather pages